User: anonymous   Login
Location: Caltech
(34.1382°N, 118.1253°W)
Time: 08:31:33
(UTC-07:00)
Language:

RS-15 - Orbit

View from above orbital plane
View from above orbital plane
View from above satellite
View from above satellite

Ground track
Ground track

The orbit data is extracted from the following two-line orbital elements,

1 23439U 94085A   16269.96772494 -.00000025 +00000-0 +50741-3 0  9997
2 23439 064.8148 286.5272 0167397 290.6067 081.5762 11.27565402895621
Epoch (UTC): 25 September 2016 23:13:31
Eccentricity: 0.0167397
inclination: 64.8148°
perigee height: 1882 km
apogee height: 2163 km
right ascension of ascending node: 286.5272°
argument of perigee: 290.6067°
revolutions per day: 11.27565402
mean anomaly at epoch: 81.5762°
orbit number at epoch: 89562

The dashed part of the orbit path shows where the satellite is in the earth's shadow,  

DLR